Location: Bottom School (historical)
(37.9078°N, 89.3593°W)
Time: 04:35:21
(UTC+00:00)

Gurwin Techsat 1B - Visible Passes

Search period start: 23 March 2023 00:00
Search period end: 02 April 2023 00:00
Orbit: 811 x 814 km, 98.9° (Epoch: 22 March)

Date Brightness Start Highest point End Pass type
(mag) Time Alt. Az. Time Alt. Az. Time Alt. Az.
23 Mar 10.0 08:57:17 10° NNE 09:00:07 33° N 09:00:07 33° N visible
23 Mar 10.7 10:40:52 10° NW 10:41:19 10° NW 10:41:19 10° NW visible
24 Mar 10.3 08:34:20 10° NNE 08:36:56 29° NNE 08:36:56 29° NNE visible
24 Mar 10.3 10:15:38 10° NNW 10:18:09 17° NW 10:18:09 17° NW visible
25 Mar 10.8 08:11:39 10° NNE 08:13:46 22° NE 08:13:46 22° NE visible
25 Mar 9.9 09:51:48 10° N 09:54:58 25° NW 09:54:58 25° NW visible
26 Mar 11.2 07:49:19 10° NE 07:50:35 15° ENE 07:50:35 15° ENE visible
26 Mar 9.6 09:28:21 10° N 09:31:47 34° NNW 09:31:47 34° NNW visible
27 Mar 9.5 09:05:08 10° N 09:08:36 41° N 09:08:36 41° N visible
28 Mar 9.8 08:42:07 10° NNE 08:45:25 38° NNE 08:45:25 38° NNE visible
28 Mar 10.4 10:23:52 10° NNW 10:26:38 15° WNW 10:26:38 15° WNW visible
29 Mar 10.4 08:19:20 10° NNE 08:22:15 29° NE 08:22:15 29° NE visible
29 Mar 9.9 09:59:50 10° NNW 10:03:27 23° WNW 10:03:27 23° WNW visible
30 Mar 10.9 07:56:52 10° NE 07:59:04 20° ENE 07:59:04 20° ENE visible
30 Mar 9.5 09:36:17 10° N 09:40:16 35° NW 09:40:16 35° NW visible
31 Mar 11.3 07:34:59 10° ENE 07:35:53 12° ENE 07:35:53 12° ENE visible
31 Mar 9.1 09:12:59 10° N 09:17:05 49° NNW 09:17:05 49° NNW visible
01 Apr 9.3 08:49:55 10° NNE 08:53:54 52° NNE 08:53:54 52° NNE visible
01 Apr 10.5 10:32:16 10° NW 10:34:25 13° WNW 10:35:07 12° WNW visible
